DW0707 Ocean Shores WA US current weather conditions

sailwx.info

Wind from 079 at 4 knots gusting 11

Air temperature 8.9° C
Dewpoint 8.7° C

Last reported at 2020-Jan-25 14:02 UTC.
Time now 2020-Jan-25 15:04 UTC

Location: N 47°00' W 124°09'.
View on Google Maps.

See reports from other nearby stations

  
Tides and Currents Weather Stations Pressure Air Temp Water Temp Dewpoint Dewpoint Depression Visibility Wind Speed Wind Dir Waves Ship Positions
date/time (UTC)wind fromknots sea level pressurealtimeterstation pressurevisibilityair tempwater tempwave heightnotes
2020-Jan-25 14:02 079 4 gusting 11 8.9
2020-Jan-25 13:57 060 4 gusting 11 8.9
2020-Jan-25 13:52 074 4 gusting 10 8.9
2020-Jan-25 13:47 082 5 gusting 10 8.9
2020-Jan-25 13:42 082 5 gusting 9 8.9
2020-Jan-25 13:37 102 4 gusting 9 8.9
2020-Jan-25 13:32 082 4 gusting 13 8.9
2020-Jan-25 13:27 075 5 gusting 13 8.9
2020-Jan-25 13:22 128 6 gusting 12 8.9
2020-Jan-25 13:17 059 6 gusting 12 8.9
2020-Jan-25 13:12 101 6 gusting 12 8.9
2020-Jan-25 13:07 108 6 gusting 12 8.9
2020-Jan-25 13:02 080 6 gusting 10 8.9
2020-Jan-25 12:57 096 5 gusting 10 8.9
2020-Jan-25 12:52 080 5 gusting 11 8.9
2020-Jan-25 12:47 066 5 gusting 11 8.9
2020-Jan-25 12:42 084 6 gusting 11 8.9
2020-Jan-25 12:37 072 6 gusting 12 8.9
2020-Jan-25 12:32 095 5 gusting 12 8.9
2020-Jan-25 12:27 109 5 gusting 12 8.9
2020-Jan-25 12:22 081 5 gusting 12 8.9
2020-Jan-25 12:17 112 5 gusting 12 8.9
2020-Jan-25 12:12 115 6 gusting 12 8.9
2020-Jan-25 12:07 125 6 gusting 13 8.9
2020-Jan-25 12:02 078 6 gusting 13 8.9
2020-Jan-25 11:57 117 6 gusting 13 8.9
2020-Jan-25 11:52 090 6 gusting 13 8.9
2020-Jan-25 11:47 090 7 gusting 13 8.9
2020-Jan-25 11:42 103 7 gusting 13 8.9
2020-Jan-25 11:37 068 7 gusting 15 8.9
2020-Jan-25 11:27 099 7 gusting 12 8.9
2020-Jan-25 11:22 074 6 gusting 12 8.9
2020-Jan-25 11:17 075 6 gusting 12 8.9
2020-Jan-25 11:12 113 6 gusting 12 9.4
2020-Jan-25 11:07 117 6 gusting 12 9.4
2020-Jan-25 11:02 081 6 gusting 12 9.4
2020-Jan-25 10:57 097 6 gusting 12 9.4
2020-Jan-25 10:52 102 6 gusting 12 9.4
2020-Jan-25 10:47 066 6 gusting 13 9.4
2020-Jan-25 10:42 075 6 gusting 13 9.4
2020-Jan-25 10:37 098 6 gusting 13 9.4
2020-Jan-25 10:32 102 6 gusting 12 9.4
2020-Jan-25 10:27 140 6 gusting 11 9.4
2020-Jan-25 10:22 123 6 gusting 11 9.4
2020-Jan-25 10:17 073 6 gusting 11 9.4
2020-Jan-25 10:12 092 6 gusting 13 9.4
2020-Jan-25 10:07 114 6 gusting 13 9.4
2020-Jan-25 10:02 101 6 gusting 13 9.4
2020-Jan-25 09:57 078 6 gusting 12 9.4
2020-Jan-25 09:52 098 6 gusting 13 9.4
2020-Jan-25 09:47 080 6 gusting 13 9.4
2020-Jan-25 09:42 126 6 gusting 13 9.4
2020-Jan-25 09:37 098 6 gusting 13 9.4
2020-Jan-25 09:32 077 6 gusting 13 9.4
2020-Jan-25 09:27 115 6 gusting 11 9.4
2020-Jan-25 09:22 084 6 gusting 11 9.4
2020-Jan-25 09:17 088 6 gusting 11 9.4
2020-Jan-25 09:12 107 6 gusting 13 9.4
2020-Jan-25 09:07 106 6 gusting 13 9.4
2020-Jan-25 09:02 115 6 gusting 13 9.4
2020-Jan-25 08:57 147 6 gusting 12 9.4
2020-Jan-25 08:52 115 5 gusting 10 9.4
2020-Jan-25 08:47 100 5 gusting 10 9.4
2020-Jan-25 08:42 123 5 gusting 9 9.4
2020-Jan-25 08:37 098 4 gusting 9 9.4
2020-Jan-25 08:32 092 3 gusting 9 9.4
2020-Jan-25 08:27 115 4 gusting 9 9.4
2020-Jan-25 08:22 130 4 gusting 9 9.4
2020-Jan-25 08:17 146 3 gusting 8 9.4
2020-Jan-25 08:12 101 4 gusting 8 9.4
2020-Jan-25 08:07 115 4 gusting 9 9.4
2020-Jan-25 08:02 093 5 gusting 9 10.0
2020-Jan-25 07:57 108 4 gusting 9 10.0
2020-Jan-25 07:52 103 2 gusting 7 10.0
2020-Jan-25 07:47 135 2 gusting 7 10.0
2020-Jan-25 07:42 129 2 gusting 7 10.0
2020-Jan-25 07:37 106 2 gusting 6 10.0
2020-Jan-25 07:32 115 1 gusting 6 10.0
2020-Jan-25 07:27 112 10.0
2020-Jan-25 07:22 135 10.0
2020-Jan-25 07:17 130 0 gusting 4 10.0
2020-Jan-25 07:12 128 10.0
2020-Jan-25 07:07 145 0 gusting 4 10.0
2020-Jan-25 07:02 140 0 gusting 6 10.0
2020-Jan-25 06:57 150 0 gusting 6 10.0
2020-Jan-25 06:52 145 0 gusting 6 10.0
2020-Jan-25 06:47 141 0 gusting 6 10.0
2020-Jan-25 06:42 125 1 gusting 6 10.0
2020-Jan-25 06:37 130 1 gusting 6 10.0
2020-Jan-25 06:32 139 2 gusting 6 10.0
2020-Jan-25 06:27 148 2 gusting 6 10.0
2020-Jan-25 06:22 144 1 gusting 6 10.0
2020-Jan-25 06:17 130 1 gusting 6 10.6
2020-Jan-25 06:12 153 0 gusting 5 10.6
2020-Jan-25 06:07 126 0 gusting 4 10.6
2020-Jan-25 06:02 166 10.6
2020-Jan-25 05:57 139 0 gusting 6 10.6
2020-Jan-25 05:52 175 0 gusting 6 10.0
2020-Jan-25 05:47 132 0 gusting 6 10.0
2020-Jan-25 05:42 128 10.0
2020-Jan-25 05:37 167 10.0
2020-Jan-25 05:32 179 0 gusting 5 10.0
2020-Jan-25 05:27 136 0 gusting 5 10.0
2020-Jan-25 05:22 134 10.0
2020-Jan-25 05:18 191 10.0
2020-Jan-25 05:12 162 10.0
2020-Jan-25 05:07 092 10.0
2020-Jan-25 05:02 159 10.0
2020-Jan-25 04:57 242 10.0
2020-Jan-25 04:52 127 10.0
2020-Jan-25 04:47 170 10.0
2020-Jan-25 04:42 153 10.0
2020-Jan-25 04:37 183 10.0
2020-Jan-25 04:32 248 10.0
2020-Jan-25 04:27 226 10.0
2020-Jan-25 04:22 163 10.0
2020-Jan-25 04:17 176 10.0
2020-Jan-25 04:12 275 10.6
2020-Jan-25 04:07 175 10.0
2020-Jan-25 04:02 168 10.6
2020-Jan-25 03:57 242 10.0
2020-Jan-25 03:52 112 10.0
2020-Jan-25 03:47 033 10.0
2020-Jan-25 03:42 305 10.0
2020-Jan-25 03:37 327 10.0
2020-Jan-25 03:32 158 10.0
2020-Jan-25 03:27 166 10.0
2020-Jan-25 03:22 171 10.0
2020-Jan-25 03:17 180 10.0
2020-Jan-25 03:12 114 10.6
2020-Jan-25 03:07 118 10.6
2020-Jan-25 03:02 168 10.6
2020-Jan-25 02:57 146 10.6
2020-Jan-25 02:52 161 10.0
2020-Jan-25 02:47 285 10.0
2020-Jan-25 02:42 197 10.0
2020-Jan-25 02:37 272 10.0
2020-Jan-25 02:32 272 10.0
2020-Jan-25 02:27 272 10.0
2020-Jan-25 02:22 262 10.0
2020-Jan-25 02:17 267 10.0
2020-Jan-25 02:12 275 10.6
2020-Jan-25 02:07 259 10.6
2020-Jan-25 02:02 250 10.6
2020-Jan-25 01:57 210 10.6
2020-Jan-25 01:52 246 10.6
2020-Jan-25 01:47 294 10.6
2020-Jan-25 01:42 299 10.6
2020-Jan-25 01:37 292 10.6
2020-Jan-25 01:32 300 10.6
2020-Jan-25 01:27 116 10.6
2020-Jan-25 01:22 232 10.6
2020-Jan-25 01:17 231 10.6
2020-Jan-25 01:12 254 10.6
2020-Jan-25 01:07 263 10.6
2020-Jan-25 01:02 240 10.6
2020-Jan-25 00:57 299 10.6
2020-Jan-25 00:52 268 10.6
2020-Jan-25 00:47 163 10.6
2020-Jan-25 00:42 246 0 gusting 6 10.6
2020-Jan-25 00:37 236 10.6
2020-Jan-25 00:32 229 10.6
2020-Jan-25 00:27 250 10.6
2020-Jan-25 00:22 240 11.1
2020-Jan-25 00:17 323 11.1
2020-Jan-25 00:12 313 11.1
2020-Jan-25 00:07 259 11.1
2020-Jan-25 00:02 292 11.1
2020-Jan-24 23:57 271 0 gusting 6 11.1
2020-Jan-24 23:52 264 11.1
2020-Jan-24 23:47 182 0 gusting 6 11.1
2020-Jan-24 23:42 198 0 gusting 6 11.1
2020-Jan-24 23:37 111 0 gusting 6 11.1
2020-Jan-24 23:32 240 0 gusting 3 11.1
2020-Jan-24 23:27 212 11.1
2020-Jan-24 23:22 156 0 gusting 4 11.1
2020-Jan-24 23:17 252 0 gusting 4 11.1
2020-Jan-24 23:12 262 0 gusting 4 11.1
2020-Jan-24 23:07 167 11.1
2020-Jan-24 23:02 197 0 gusting 4 11.1
2020-Jan-24 22:57 210 0 gusting 5 11.1
2020-Jan-24 22:52 280 0 gusting 5 11.1
2020-Jan-24 22:47 236 0 gusting 9 11.1
2020-Jan-24 22:42 242 1 gusting 9 11.1
2020-Jan-24 22:37 246 1 gusting 6 11.1
2020-Jan-24 22:32 244 0 gusting 6 11.1
2020-Jan-24 22:27 286 0 gusting 6 11.1
2020-Jan-24 22:22 169 0 gusting 6 11.1
2020-Jan-24 22:17 274 0 gusting 8 11.1
2020-Jan-24 22:12 240 1 gusting 8 11.1
2020-Jan-24 22:07 273 1 gusting 8 11.1
2020-Jan-24 22:02 220 1 gusting 7 11.1
2020-Jan-24 21:57 286 1 gusting 7 11.1
2020-Jan-24 21:52 296 1 gusting 7 11.1
2020-Jan-24 21:47 202 0 gusting 7 11.1
2020-Jan-24 21:42 011 0 gusting 8 11.1
2020-Jan-24 21:37 255 1 gusting 8 11.1
2020-Jan-24 21:32 355 3 gusting 8 11.1
2020-Jan-24 21:27 304 2 gusting 7 11.1
2020-Jan-24 21:22 280 1 gusting 6 11.7
2020-Jan-24 21:17 291 1 gusting 6 11.7
2020-Jan-24 21:12 206 0 gusting 7 11.7
2020-Jan-24 21:07 183 0 gusting 8 11.7
2020-Jan-24 21:02 217 1 gusting 9 11.7
2020-Jan-24 20:57 232 2 gusting 9 11.7
2020-Jan-24 20:52 253 2 gusting 9 11.7
2020-Jan-24 20:47 198 2 gusting 9 11.7
2020-Jan-24 20:42 253 1 gusting 8 11.7
2020-Jan-24 20:37 263 1 gusting 8 11.7
2020-Jan-24 20:32 233 1 gusting 8 11.7
2020-Jan-24 20:27 299 1 gusting 6 11.7
2020-Jan-24 20:22 302 1 gusting 9 11.7
2020-Jan-24 20:17 324 1 gusting 9 11.7
2020-Jan-24 20:12 273 2 gusting 12 11.7
2020-Jan-24 20:07 277 2 gusting 12 11.7
2020-Jan-24 20:02 291 2 gusting 12 11.7
2020-Jan-24 19:57 211 2 gusting 9 11.7
2020-Jan-24 19:52 191 2 gusting 9 11.7
2020-Jan-24 19:47 138 2 gusting 9 11.7
2020-Jan-24 19:42 217 2 gusting 9 11.7
2020-Jan-24 19:37 023 2 gusting 13 11.7
2020-Jan-24 19:32 274 3 gusting 13 11.1
2020-Jan-24 19:27 028 3 gusting 13 10.6
2020-Jan-24 19:22 247 1 gusting 8 10.6
2020-Jan-24 19:17 313 1 gusting 8 10.6
2020-Jan-24 19:12 188 2 gusting 8 10.6
2020-Jan-24 19:07 294 2 gusting 8 10.6
2020-Jan-24 19:02 286 1 gusting 8 10.6
2020-Jan-24 18:57 251 2 gusting 7 11.1
2020-Jan-24 18:52 344 1 gusting 9 11.1
2020-Jan-24 18:47 261 2 gusting 9 11.1
2020-Jan-24 18:42 175 2 gusting 9 11.1
2020-Jan-24 18:37 264 1 gusting 9 11.1
2020-Jan-24 18:32 277 1 gusting 9 11.1
2020-Jan-24 18:27 304 1 gusting 10 11.1
2020-Jan-24 18:22 214 1 gusting 10 11.1
2020-Jan-24 18:17 211 2 gusting 10 10.6
2020-Jan-24 18:12 184 2 gusting 9 10.6
2020-Jan-24 18:07 074 1 gusting 8 10.6
2020-Jan-24 18:02 260 1 gusting 8 10.6
2020-Jan-24 17:57 279 1 gusting 9 10.6
2020-Jan-24 17:52 239 1 gusting 9 10.6
2020-Jan-24 17:47 199 1 gusting 9 10.6
2020-Jan-24 17:42 112 1 gusting 8 10.6
2020-Jan-24 17:37 135 1 gusting 8 10.6
2020-Jan-24 17:32 200 1 gusting 8 10.6
2020-Jan-24 17:27 253 1 gusting 6 10.6
2020-Jan-24 17:22 015 0 gusting 6 10.6
2020-Jan-24 17:17 236 0 gusting 6 10.6
2020-Jan-24 17:12 244 0 gusting 10 10.6
2020-Jan-24 17:07 005 1 gusting 10 10.0
2020-Jan-24 17:02 249 2 gusting 12 10.0
2020-Jan-24 16:57 285 1 gusting 12 10.0
2020-Jan-24 16:52 216 2 gusting 12 10.0
2020-Jan-24 16:47 236 2 gusting 10 10.0
2020-Jan-24 16:42 231 2 gusting 11 10.0
2020-Jan-24 16:37 227 2 gusting 11 10.0
2020-Jan-24 16:32 196 2 gusting 11 10.0
2020-Jan-24 16:27 247 2 gusting 10 10.0
2020-Jan-24 16:22 239 1 gusting 9 10.0
2020-Jan-24 16:17 235 1 gusting 9 10.0
2020-Jan-24 16:12 128 1 gusting 8 10.0
2020-Jan-24 16:07 243 0 gusting 9 10.0
2020-Jan-24 16:02 194 0 gusting 9 10.0
2020-Jan-24 15:57 235 0 gusting 5 10.0
2020-Jan-24 15:52 169 0 gusting 8 10.0
2020-Jan-24 15:47 248 1 gusting 8 10.0
2020-Jan-24 15:42 127 1 gusting 6 10.0
2020-Jan-24 15:37 238 0 gusting 6 10.0
2020-Jan-24 15:32 280 0 gusting 6 10.0
2020-Jan-24 15:27 191 0 gusting 6 10.0
2020-Jan-24 15:22 195 0 gusting 6 10.0
2020-Jan-24 15:17 171 0 gusting 6 10.0
2020-Jan-24 15:12 118 0 gusting 6 10.0
2020-Jan-24 15:07 168 0 gusting 6 10.0
2020-Jan-24 15:02 206 0 gusting 4 10.0
2020-Jan-24 14:57 225 10.0
2020-Jan-24 14:52 319 10.0
2020-Jan-24 14:47 286 10.0
2020-Jan-24 14:42 235 10.0
2020-Jan-24 14:37 229 0 gusting 6 10.0
2020-Jan-24 14:32 274 0 gusting 6 10.0
2020-Jan-24 14:27 244 0 gusting 6 10.0
2020-Jan-24 14:22 153 0 gusting 5 10.0
2020-Jan-24 14:17 223 10.0
2020-Jan-24 14:12 288 10.0
2020-Jan-24 14:07 261 0 gusting 6 10.0
2020-Jan-24 14:02 232 0 gusting 5 10.6
2020-Jan-24 13:57 232 0 gusting 5 10.6
2020-Jan-24 13:52 293 10.0
2020-Jan-24 13:47 275 10.6
2020-Jan-24 13:42 196 10.6
2020-Jan-24 13:37 084 0 gusting 10 10.6
2020-Jan-24 13:32 176 0 gusting 6 10.6
2020-Jan-24 13:27 271 0 gusting 6 10.6
2020-Jan-24 13:22 270 0 gusting 6 10.6
2020-Jan-24 13:17 318 0 gusting 6 10.6
2020-Jan-24 13:12 056 10.6
2020-Jan-24 13:07 152 10.6
2020-Jan-24 13:02 144 10.0
2020-Jan-24 12:57 127 10.0
2020-Jan-24 12:52 265 0 gusting 6 10.0
2020-Jan-24 12:47 197 0 gusting 6 10.0
2020-Jan-24 12:42 317 10.0
2020-Jan-24 12:37 217 10.0
2020-Jan-24 12:32 250 10.0
2020-Jan-24 12:27 177 10.0
2020-Jan-24 12:22 198 0 gusting 4 10.0
2020-Jan-24 12:17 187 10.0
2020-Jan-24 12:12 186 0 gusting 4 10.0
2020-Jan-24 12:07 281 0 gusting 4 10.0
2020-Jan-24 12:02 222 0 gusting 4 10.0
2020-Jan-24 11:57 269 0 gusting 3 10.0
2020-Jan-24 11:52 136 10.0
2020-Jan-24 11:47 223 10.0
2020-Jan-24 11:42 130 10.0
2020-Jan-24 11:37 076 0 gusting 5 10.0
2020-Jan-24 11:32 182 10.0
2020-Jan-24 11:27 229 10.0
2020-Jan-24 11:22 250 10.0
2020-Jan-24 11:17 300 10.0
2020-Jan-24 11:12 146 10.0
2020-Jan-24 11:07 030 0 gusting 7 10.0
2020-Jan-24 11:02 236 10.6
2020-Jan-24 10:57 298 10.6
2020-Jan-24 10:52 232 0 gusting 6 10.6
2020-Jan-24 10:47 099 0 gusting 6 10.6
2020-Jan-24 10:42 186 0 gusting 6 10.6
2020-Jan-24 10:37 207 0 gusting 6 10.6
2020-Jan-24 10:32 241 0 gusting 6 10.6
2020-Jan-24 10:27 200 10.6
2020-Jan-24 10:22 088 10.6
2020-Jan-24 10:17 196 10.6
2020-Jan-24 10:12 268 0 gusting 6 10.6
2020-Jan-24 10:07 166 0 gusting 6 10.6
2020-Jan-24 10:02 302 0 gusting 6 10.6
2020-Jan-24 09:57 223 10.6
2020-Jan-24 09:52 252 10.6
2020-Jan-24 09:47 304 10.6
2020-Jan-24 09:42 220 10.6
2020-Jan-24 09:37 035 10.6
2020-Jan-24 09:32 182 0 gusting 6 10.6
2020-Jan-24 09:27 208 0 gusting 6 10.6
2020-Jan-24 09:22 300 0 gusting 6 10.6
2020-Jan-24 09:17 293 0 gusting 4 10.6
2020-Jan-24 09:12 237 0 gusting 6 10.6
2020-Jan-24 09:07 269 0 gusting 6 10.6
2020-Jan-24 09:02 161 10.6
2020-Jan-24 08:57 092 10.6
2020-Jan-24 08:52 274 10.6
2020-Jan-24 08:47 311 10.6
2020-Jan-24 08:42 200 10.6
2020-Jan-24 08:37 206 10.6
2020-Jan-24 08:32 265 10.6
2020-Jan-24 08:27 246 10.6
2020-Jan-24 08:22 260 10.6
2020-Jan-24 08:17 061 10.6
2020-Jan-24 08:12 074 10.6
2020-Jan-24 08:07 296 10.6
2020-Jan-24 08:02 119 10.6
2020-Jan-24 07:57 290 10.6
2020-Jan-24 07:52 115 10.6
2020-Jan-24 07:47 107 0 gusting 5 10.6
2020-Jan-24 07:42 248 0 gusting 5 10.6
2020-Jan-24 07:37 160 10.6
2020-Jan-24 07:32 269 10.6
2020-Jan-24 07:27 187 10.6
2020-Jan-24 07:22 223 10.6
2020-Jan-24 07:17 236 10.6
2020-Jan-24 07:12 315 0 gusting 10 10.6
2020-Jan-24 07:07 099 0 gusting 10 10.6
2020-Jan-24 07:02 188 0 gusting 5 10.6
2020-Jan-24 06:57 242 10.6
2020-Jan-24 06:52 240 10.6
2020-Jan-24 06:47 074 10.6
2020-Jan-24 06:42 298 10.6
2020-Jan-24 06:37 158 0 gusting 4 10.6
2020-Jan-24 06:32 266 10.6
2020-Jan-24 06:27 138 10.6
2020-Jan-24 06:22 198 10.6
2020-Jan-24 06:17 159 10.6
2020-Jan-24 06:12 130 10.6
2020-Jan-24 06:07 161 10.6
2020-Jan-24 06:02 184 10.6
2020-Jan-24 05:57 284 10.6
2020-Jan-24 05:52 133 10.6
2020-Jan-24 05:47 277 10.6
2020-Jan-24 05:42 136 10.6
2020-Jan-24 05:37 290 0 gusting 3 10.6
2020-Jan-24 05:32 173 0 gusting 3 10.6
2020-Jan-24 05:27 170 10.6
2020-Jan-24 05:22 298 10.6
2020-Jan-24 05:17 163 10.6
2020-Jan-24 05:12 188 10.6
2020-Jan-24 05:07 212 10.6
2020-Jan-24 05:02 178 0 gusting 7 10.6
2020-Jan-24 04:57 194 0 gusting 6 10.6
2020-Jan-24 04:52 180 10.6
2020-Jan-24 04:47 215 10.6
2020-Jan-24 04:42 270 10.6
2020-Jan-24 04:37 221 10.6
2020-Jan-24 04:32 142 10.6
2020-Jan-24 04:27 208 10.6
2020-Jan-24 04:22 199 0 gusting 6 10.6
2020-Jan-24 04:17 229 0 gusting 3 10.6
2020-Jan-24 04:12 169 10.6
2020-Jan-24 04:07 188 0 gusting 7 10.6
2020-Jan-24 04:02 194 0 gusting 7 10.6
2020-Jan-24 03:57 250 10.6
2020-Jan-24 03:52 147 10.6
2020-Jan-24 03:47 190 10.6
2020-Jan-24 03:42 165 0 gusting 8 10.6
2020-Jan-24 03:37 142 0 gusting 7 10.6
2020-Jan-24 03:32 044 10.6
2020-Jan-24 03:27 166 0 gusting 6 10.6
2020-Jan-24 03:22 194 0 gusting 6 10.6
2020-Jan-24 03:17 196 0 gusting 5 10.6
2020-Jan-24 03:12 182 0 gusting 5 10.6
2020-Jan-24 03:07 135 0 gusting 7 10.6
2020-Jan-24 03:02 113 0 gusting 7 10.6
2020-Jan-24 02:57 188 0 gusting 12 10.6
2020-Jan-24 02:52 186 0 gusting 12 10.6
2020-Jan-24 02:47 227 0 gusting 12 10.6
2020-Jan-24 02:42 135 1 gusting 7 10.6
2020-Jan-24 02:37 207 0 gusting 6 10.6
2020-Jan-24 02:32 163 0 gusting 6 10.6
2020-Jan-24 02:27 223 0 gusting 6 10.6
2020-Jan-24 02:22 175 0 gusting 7 10.6
2020-Jan-24 02:17 344 1 gusting 7 10.6
2020-Jan-24 02:12 149 2 gusting 12 10.6
2020-Jan-24 02:07 157 2 gusting 13 10.6
2020-Jan-24 02:02 188 3 gusting 13 10.6
2020-Jan-24 01:57 213 3 gusting 13 10.6
2020-Jan-24 01:52 217 3 gusting 12 10.6
2020-Jan-24 01:47 204 3 gusting 15 10.6
2020-Jan-24 01:42 162 3 gusting 15 10.6
2020-Jan-24 01:37 134 3 gusting 15 10.6
2020-Jan-24 01:32 144 3 gusting 9 10.6
2020-Jan-24 01:27 157 2 gusting 10 10.6
2020-Jan-24 01:22 177 3 gusting 14 11.1
2020-Jan-24 01:17 160 3 gusting 14 10.6
2020-Jan-24 01:12 155 3 gusting 14 10.6
2020-Jan-24 01:07 099 2 gusting 9 11.1
2020-Jan-24 01:02 180 1 gusting 8 11.1
2020-Jan-24 00:57 184 2 gusting 8 11.1
2020-Jan-24 00:52 154 2 gusting 11 11.1
2020-Jan-24 00:47 165 2 gusting 15 11.1
2020-Jan-24 00:42 162 3 gusting 17 11.1
2020-Jan-24 00:37 150 3 gusting 17 11.1
2020-Jan-24 00:32 200 3 gusting 14 11.1
2020-Jan-24 00:27 169 3 gusting 14 11.1
2020-Jan-24 00:22 128 3 gusting 8 11.1
2020-Jan-24 00:17 186 3 gusting 13 11.1
2020-Jan-24 00:12 199 3 gusting 13 11.1
2020-Jan-24 00:07 167 3 gusting 12 11.1
2020-Jan-24 00:02 192 3 gusting 12 11.1
2020-Jan-23 23:57 167 2 gusting 12 11.1
2020-Jan-23 23:52 167 2 gusting 12 11.1
2020-Jan-23 23:47 172 1 gusting 9 11.1
2020-Jan-23 23:42 130 0 gusting 6 11.1
2020-Jan-23 23:37 153 0 gusting 15 11.1
2020-Jan-23 23:32 078 1 gusting 15 11.1
2020-Jan-23 23:27 175 1 gusting 15 11.1
2020-Jan-23 23:22 200 1 gusting 13 11.1
2020-Jan-23 23:17 182 3 gusting 13 11.1
2020-Jan-23 23:12 205 3 gusting 13 11.1
2020-Jan-23 23:07 163 2 gusting 6 11.1
2020-Jan-23 23:02 157 1 gusting 10 11.1
2020-Jan-23 22:57 080 0 gusting 10 11.1
2020-Jan-23 22:52 168 2 gusting 10 11.1
2020-Jan-23 22:47 136 2 gusting 10 11.1
2020-Jan-23 22:42 147 2 gusting 10 11.1
2020-Jan-23 22:37 185 2 gusting 12 11.1
2020-Jan-23 22:32 159 2 gusting 17 11.1
2020-Jan-23 22:27 180 2 gusting 17 11.1
2020-Jan-23 22:22 233 3 gusting 17 11.1
2020-Jan-23 22:17 077 2 gusting 13 11.1
2020-Jan-23 22:12 176 2 gusting 13 11.1
2020-Jan-23 22:07 121 2 gusting 13 11.1
2020-Jan-23 22:02 263 1 gusting 10 11.1
2020-Jan-23 21:57 186 1 gusting 10 11.1
2020-Jan-23 21:52 198 2 gusting 13 11.1
2020-Jan-23 21:47 178 1 gusting 13 11.1
2020-Jan-23 21:42 188 1 gusting 13 11.1
2020-Jan-23 21:37 142 0 gusting 7 11.1
2020-Jan-23 21:32 229 0 gusting 11 11.1
2020-Jan-23 21:27 213 1 gusting 11 11.1
2020-Jan-23 21:22 179 1 gusting 11 11.1
2020-Jan-23 21:17 126 1 gusting 9 11.1
2020-Jan-23 21:12 144 1 gusting 9 11.1
2020-Jan-23 21:07 123 0 gusting 7 11.1
2020-Jan-23 21:02 214 0 gusting 7 11.1
2020-Jan-23 20:57 216 0 gusting 7 11.1
2020-Jan-23 20:52 185 0 gusting 8 11.1
2020-Jan-23 20:47 198 0 gusting 11 11.1
2020-Jan-23 20:42 115 0 gusting 11 11.1
2020-Jan-23 20:37 097 0 gusting 11 11.1
2020-Jan-23 20:32 183 0 gusting 9 11.1
2020-Jan-23 20:27 329 0 gusting 9 11.1
2020-Jan-23 20:22 136 1 gusting 9 11.1
2020-Jan-23 20:17 267 1 gusting 7 11.1
2020-Jan-23 20:12 267 0 gusting 10 11.1
2020-Jan-23 20:07 229 1 gusting 10 11.1
2020-Jan-23 20:02 187 1 gusting 8 11.1
2020-Jan-23 19:57 201 1 gusting 11 11.1
2020-Jan-23 19:52 080 1 gusting 11 11.1
2020-Jan-23 19:47 216 1 gusting 8 11.1
2020-Jan-23 19:42 206 1 gusting 8 11.1
2020-Jan-23 19:37 144 1 gusting 8 11.1
2020-Jan-23 19:32 233 0 gusting 8 11.1
2020-Jan-23 19:27 169 0 gusting 8 11.1
2020-Jan-23 19:22 224 0 gusting 8 11.1
2020-Jan-23 19:17 169 0 gusting 6 11.1
2020-Jan-23 19:12 194 0 gusting 13 11.1
2020-Jan-23 19:07 112 1 gusting 13 11.1
2020-Jan-23 19:02 093 1 gusting 6 11.1
2020-Jan-23 18:57 196 1 gusting 9 11.1
2020-Jan-23 18:52 170 0 gusting 9 11.1
2020-Jan-23 18:47 340 1 gusting 11 11.1
2020-Jan-23 18:42 186 1 gusting 11 11.1
2020-Jan-23 18:37 190 1 gusting 11 11.1
2020-Jan-23 18:32 279 1 gusting 11 11.1
2020-Jan-23 18:27 193 1 gusting 11 11.1
2020-Jan-23 18:22 277 0 gusting 11 11.1
2020-Jan-23 18:17 238 0 gusting 6 11.1
2020-Jan-23 18:12 228 1 gusting 8 11.1
2020-Jan-23 18:07 192 1 gusting 8 11.1
2020-Jan-23 18:02 155 2 gusting 8 11.1
2020-Jan-23 17:57 168 1 gusting 8 11.1
2020-Jan-23 17:52 219 0 gusting 7 11.1
2020-Jan-23 17:47 209 1 gusting 7 11.1
2020-Jan-23 17:42 138 0 gusting 8 11.1
2020-Jan-23 17:37 124 0 gusting 8 11.1
2020-Jan-23 17:32 188 0 gusting 9 11.1
2020-Jan-23 17:27 171 0 gusting 9 11.1
2020-Jan-23 17:22 218 0 gusting 11 11.1
2020-Jan-23 17:17 243 0 gusting 11 11.1
2020-Jan-23 17:12 078 1 gusting 7 11.1
2020-Jan-23 17:07 199 1 gusting 7 11.1
2020-Jan-23 17:02 178 1 gusting 7 11.1
2020-Jan-23 16:57 168 1 gusting 7 11.1
2020-Jan-23 16:52 188 0 gusting 7 11.1
2020-Jan-23 16:47 226 1 gusting 12 11.1
2020-Jan-23 16:42 206 1 gusting 12 11.1
2020-Jan-23 16:37 119 1 gusting 12 11.1
2020-Jan-23 16:32 192 1 gusting 12 11.1
2020-Jan-23 16:27 157 1 gusting 12 11.1
2020-Jan-23 16:22 201 2 gusting 12 10.6
2020-Jan-23 16:17 203 1 gusting 10 10.6
2020-Jan-23 16:12 191 1 gusting 10 10.6
2020-Jan-23 16:07 074 1 gusting 10 10.6
2020-Jan-23 16:02 172 1 gusting 10 10.6
2020-Jan-23 15:57 183 1 gusting 10 10.6
2020-Jan-23 15:52 227 1 gusting 12 10.6
2020-Jan-23 15:47 153 2 gusting 12 10.6
2020-Jan-23 15:42 197 2 gusting 10 10.6
2020-Jan-23 15:37 176 1 gusting 10 10.6
2020-Jan-23 15:32 182 1 gusting 12 10.6
2020-Jan-23 15:27 148 2 gusting 12 10.6
2020-Jan-23 15:22 176 2 gusting 9 10.6
2020-Jan-23 15:17 194 1 gusting 9 10.6
2020-Jan-23 15:12 075 1 gusting 9 10.6
2020-Jan-23 15:07 084 0 gusting 9 10.6
2020-Jan-23 15:02 184 0 gusting 6 10.6